Fort Campbell, KY

2:01 PM CST on February 14, 2016 (GMT -0600)
Campbell Army Air Field

Weather History for KHOP - April, 2012

Change the Weather History Date:

Thursday, April 26, 2012

  Actual Average Record
Temperature  
Mean Temperature 73 °F -  
Max Temperature 83 °F 71 °F 83 °F (2012)
Min Temperature 64 °F 50 °F 42 °F (2001)
Cooling Degree Days 8    
Growing Degree Days 23 (Base 50)    
Moisture  
Dew Point 60 °F    
Average Humidity 62    
Maximum Humidity 73    
Minimum Humidity 40    
Precipitation  
Precipitation 0.00 in - - ()
Sea Level Pressure  
Sea Level Pressure 29.81 in    
Wind  
Wind Speed 16 mph (WSW)    
Max Wind Speed 22 mph    
Max Gust Speed 30 mph    
Visibility 9 miles    
Events      
Averages and records for this station are not official NWS values.
T = Trace of Precipitation, MM = Missing Value Source: NWS Daily Summary

Daily Weather History Graph

Daily Weather History Graph

Search for Another Location

Airport or City:

Trip Planner

Search our weather history database for the weather conditions in past years. The results will help you decide how hot, cold, wet, or windy it might be!

Date:

Astronomy

Apr. 26, 2012 Rise Set
Actual Time 6:01 AM CDT 7:34 PM CDT
Civil Twilight 5:34 AM CDT 8:01 PM CDT
Nautical Twilight 5:01 AM CDT 8:34 PM CDT
Astronomical Twilight 4:26 AM CDT 9:09 PM CDT
Moon 9:43 AM CDT (4/26) No Moon Set
Length of Visible Light 14h 27m
Length of Day
13h 33m
Waxing Crescent, 24% of the Moon is Illuminated
Apr 26
Waxing Crescent
Apr 29
First Quarter
May 5
Full
May 12
Last Quarter
May 20
New

Hourly Weather History & Observations

Time (CDT) Temp. Heat Index Dew Point Humidity Pressure Visibility Wind Dir Wind Speed Gust Speed Precip Events Conditions
12:55 AM 71.4 °F - 58.6 °F 64% 29.72 in 7.0 mi SW 20.7 mph 27.6 mph N/A   Partly Cloudy
1:55 AM 71.4 °F - 58.8 °F 64% 29.70 in 7.0 mi SW 21.9 mph 29.9 mph N/A   Clear
2:55 AM 71.8 °F - 58.8 °F 64% 29.70 in 7.0 mi WSW 19.6 mph 28.8 mph N/A   Mostly Cloudy
3:55 AM 70.9 °F - 59.4 °F 67% 29.71 in 7.0 mi WSW 19.6 mph - N/A   Mostly Cloudy
4:55 AM 70.7 °F - 59.9 °F 69% 29.72 in 7.0 mi WSW 19.6 mph - N/A   Mostly Cloudy
5:55 AM 69.8 °F - 60.3 °F 72% 29.73 in 7.0 mi SW 16.1 mph - N/A   Clear
6:55 AM 69.8 °F - 60.8 °F 73% 29.75 in 7.0 mi WSW 18.4 mph - -   Clear
7:55 AM 71.8 °F - 62.1 °F 71% 29.77 in 10.0 mi WSW 19.6 mph - N/A   Clear
8:55 AM 73.6 °F - 63.5 °F 71% 29.79 in 10.0 mi WSW 13.8 mph 27.6 mph N/A   Clear
9:55 AM 75.9 °F - 64.6 °F 68% 29.80 in 10.0 mi WSW 18.4 mph - N/A   Clear
10:55 AM 78.1 °F - 66.2 °F 67% 29.82 in 10.0 mi WSW 17.3 mph - N/A   Mostly Cloudy
11:55 AM 78.6 °F - 66.2 °F 66% 29.82 in 10.0 mi West 13.8 mph - N/A   Mostly Cloudy
12:55 PM 77.2 °F - 66.4 °F 69% 29.83 in 10.0 mi West 10.4 mph - N/A   Overcast
1:55 PM 80.8 °F 83.2 °F 67.1 °F 63% 29.83 in 10.0 mi West 12.7 mph 18.4 mph N/A   Mostly Cloudy
2:55 PM 81.3 °F 83.6 °F 66.9 °F 61% 29.82 in 10.0 mi WSW 13.8 mph - N/A   Partly Cloudy
3:55 PM 81.7 °F 84.0 °F 66.6 °F 60% 29.81 in 10.0 mi West 15.0 mph - N/A   Scattered Clouds
4:55 PM 81.5 °F 84.2 °F 67.8 °F 63% 29.81 in 10.0 mi WSW 11.5 mph - N/A   Partly Cloudy
5:55 PM 80.6 °F 80.4 °F 54.3 °F 40% 29.83 in 10.0 mi North 8.1 mph - N/A   Partly Cloudy
6:55 PM 77.2 °F - 54.5 °F 45% 29.86 in 10.0 mi Variable 5.8 mph - N/A   Clear
7:55 PM 73.6 °F - 51.3 °F 45% 29.90 in 10.0 mi Calm Calm - N/A   Clear
8:55 PM 70.9 °F - 51.6 °F 50% 29.93 in 10.0 mi Calm Calm - N/A   Clear
9:55 PM 69.4 °F - 52.5 °F 55% 29.94 in 10.0 mi Calm Calm - N/A   Clear
10:55 PM 65.1 °F - 53.2 °F 65% 29.95 in 10.0 mi Calm Calm - N/A   Clear
11:55 PM 64.4 °F - 52.5 °F 65% 29.97 in 10.0 mi NNE 6.9 mph - N/A   Clear